Location: Kankossa
(16.4667°N, 9.3167°W)
Time: 00:58:46
(UTC+00:00)

Daily predictions for brighter satellites

Satellite Brightness Start Highest point End
(mag) Time Altitude Azimuth Time Altitude Azimuth Time Altitude Azimuth
CZ-3B R/B 4.0 03:57:14 48° SSW 03:57:14 48° SSW 04:06:47 10° SE
Lacrosse 5 4.4 04:10:41 15° ENE 04:10:41 15° ENE 04:12:36 10° E
Cosmos 2237 Rocket 3.7 04:23:34 30° SSE 04:23:34 30° SSE 04:26:17 10° SSE
Cosmos 2263 Rocket 2.8 04:32:03 10° S 04:38:41 49° ENE 04:43:02 10° NNE
Meteor 2-11 Rocket 4.4 04:37:26 10° S 04:43:29 77° E 04:44:31 62° NNE
CZ-4B R/B 3.4 05:00:33 62° SSE 05:00:33 62° SSE 05:04:27 10° S
STARLINK-61 4.2 05:03:32 52° E 05:03:32 52° E 05:06:52 10° SE
Cosmos 44 3.8 05:03:00 10° S 05:07:57 59° ESE 05:12:39 10° NNE
Meteosat 1 Rocket2 3.3 05:07:50 66° SW 05:07:58 66° SSW 05:13:59 10° ESE
Cosmos 2034 Rocket 3.9 05:03:36 10° SSW 05:09:45 61° W 05:13:22 26° NNW
Cosmos 1484 Rocket 3.8 05:07:09 10° NNE 05:10:50 45° E 05:14:28 10° S
Delta 202 3.8 05:11:36 43° SW 05:13:10 64° SSE 05:18:34 10° E
STARLINK-57 4.5 05:14:27 38° NNE 05:15:05 41° NE 05:18:52 10° ESE
Cosmos 1812 2.7 05:15:49 80° SE 05:15:49 80° SE 05:19:29 10° S
Meteor PRIRODA 3.6 05:17:58 76° ENE 05:18:09 79° E 05:21:47 10° S
STARLINK-27 4.5 05:17:30 37° NNE 05:18:20 42° NE 05:22:08 10° SE
STARLINK-74 4.4 05:19:02 37° NNE 05:19:56 44° NE 05:23:46 10° SE
Cosmos 1420 Rocket 4.4 05:15:10 10° SSW 05:22:22 31° NNW 05:25:15 10° N
STARLINK-39 4.3 05:20:39 38° NNE 05:21:36 47° NE 05:25:28 10° SE
PSLV R/B 4.1 05:18:55 10° NNE 05:23:01 71° ESE 05:27:04 10° S
STARLINK 4.2 05:22:17 39° N 05:23:17 49° NE 05:27:11 10° SE
STARLINK-42 4.0 05:24:03 42° N 05:25:03 56° NE 05:29:00 10° SE
STARLINK-21 4.0 05:25:27 40° N 05:26:34 55° NE 05:30:30 10° SE
STARLINK-45 3.7 05:27:28 46° NNW 05:28:29 70° NE 05:32:28 10° SE
STARLINK-75 3.5 05:29:11 49° NNW 05:30:11 79° NE 05:34:12 10° SE
ALOS 3.2 05:26:11 10° NNE 05:30:41 50° E 05:35:12 10° S
Chandra Rocket (1) 4.3 05:19:29 27° WNW 05:31:22 73° SSW 05:37:27 10° SE
STARLINK-76 3.8 05:30:14 39° NNW 05:31:33 65° NE 05:35:31 10° SE
Meteor 1-25 Rocket 4.1 05:26:37 10° S 05:32:09 78° W 05:37:45 10° N
STARLINK 3.7 05:31:50 39° NNW 05:33:12 69° NE 05:37:11 10° SE
Cosmos 1346 Rocket 4.2 05:30:12 10° SSE 05:33:47 38° E 05:37:23 10° NNE
STARLINK-32 3.6 05:33:26 38° NNW 05:34:52 73° NE 05:38:51 10° SE
STARLINK-40 3.6 05:35:01 37° NNW 05:36:29 77° NE 05:40:29 10° SE
STARLINK-26 3.2 05:36:20 54° W 05:36:42 59° SW 05:40:12 10° SSE
STARLINK-44 3.5 05:36:36 36° NNW 05:38:08 81° NE 05:42:09 10° SE
Meteor 1-14 Rocket 4.4 05:33:43 10° S 05:39:33 79° E 05:45:30 10° N
STARLINK-37 3.4 05:38:21 37° NW 05:39:53 89° SW 05:43:53 10° SE
Cosmos 1241 Rocket 4.4 05:36:17 17° NNW 05:41:14 84° WSW 05:47:29 10° SSE
STARLINK-36 3.4 05:39:47 34° NW 05:41:27 89° ENE 05:45:28 10° SE
STARLINK-41 3.4 05:41:14 32° NW 05:43:00 90° SSW 05:47:01 10° SE
Cosmos 614 Rocket 3.8 05:39:46 15° NNW 05:43:57 76° WSW 05:49:03 10° S
Hubble Space Telescope 1.3 05:41:02 15° SW 05:44:16 56° SSE 05:48:20 10° ENE
STARLINK-64 3.4 05:42:55 31° NW 05:44:44 84° SW 05:48:46 10° SSE
GPS 2-17 Rocket1 3.8 05:43:23 25° WSW 05:45:35 44° SSW 05:50:06 10° SE
STARLINK-35 3.4 05:44:35 31° NW 05:46:26 78° SW 05:50:25 10° SSE
STARLINK-51 3.4 05:46:11 30° NW 05:48:05 74° SW 05:52:04 10° SSE
Cosmos 1092 Rocket 4.2 05:42:35 10° N 05:48:41 70° E 05:54:46 10° S
Cosmos 1452 Rocket 4.1 05:44:21 10° SW 05:49:03 33° WNW 05:53:46 10° N
STARLINK-30 3.5 05:47:45 28° NW 05:49:43 70° SW 05:53:42 10° SSE
PAYLOAD B 4.2 05:44:41 10° NNE 05:50:14 87° ESE 05:55:48 10° SSW
STARLINK-33 3.5 05:49:21 27° NW 05:51:21 67° SW 05:55:20 10° SSE
Lacrosse 5 2.3 05:49:57 24° WNW 05:52:27 42° WSW 05:57:12 10° S
STARLINK-50 3.6 05:50:57 26° NW 05:53:01 63° SW 05:56:58 10° SSE
Gbstr 26 Del rocket 4.5 05:53:20 15° WSW 05:53:45 16° SW 05:56:07 10° SSW
SL-16 R/B 2.7 05:50:59 20° NW 05:54:22 38° WSW 05:59:34 10° S
STARLINK 3.5 05:52:08 24° NW 05:54:27 72° SW 05:58:27 10° SSE
Cosmos 1340 2.5 05:52:04 10° S 05:55:48 78° W 05:59:32 10° N
STARLINK-56 3.7 05:54:07 24° NW 05:56:18 57° SW 06:00:13 10° SSE
Starlink (trailer) 3.7 05:55:42 23° NW 05:57:57 53° SW 06:01:51 10° SSE
Skynet4D Del rocket 4.3 05:54:07 19° NW 05:58:11 52° NNE 06:04:39 10° E
COSMO-SKYMED 1 3.3 05:54:28 10° SSE 05:58:41 54° ENE 06:02:54 10° N
STARLINK-38 3.8 05:57:20 22° WNW 05:59:38 50° SW 06:03:31 10° SSE
STARLINK-65 3.9 05:58:54 21° WNW 06:01:15 48° SW 06:05:07 10° SSE
Cosmos 1140 Rocket 3.4 05:57:12 10° NNW 06:02:25 80° WSW 06:07:38 10° S
STARLINK-69 4.1 06:03:45 19° WNW 06:06:14 39° SW 06:10:00 10° SSE
Cosmos 407 Rocket 3.9 06:02:02 10° NNW 06:07:04 43° W 06:12:04 10° S
STARLINK-66 4.2 06:05:18 18° WNW 06:07:53 39° SW 06:11:38 10° SSE
BREEZE-M DEB (TANK) 4.5 06:12:17 13° NW 06:12:17 13° NW 06:13:08 10° NNW
STARLINK-70 4.4 06:10:01 15° WNW 06:12:45 33° WSW 06:16:23 10° S
CZ-4C R/B 3.2 06:08:23 10° NNW 06:16:28 73° WSW 06:24:53 10° SSE
Cosmos 1733 Rocket 3.7 06:12:14 10° S 06:16:29 59° E 06:20:43 10° NNE
GPS 2-04 Rocket1 4.2 06:14:34 13° WNW 06:16:36 19° NNW 06:19:31 10° NNE
NOAA 6 4.0 06:12:24 10° N 06:17:28 65° WNW 06:22:32 10° SSW
Cosmos 2263 Rocket 3.9 06:21:14 10° WNW 06:21:35 10° WNW 06:21:57 10° WNW
GPS 2-15 Rocket1 3.5 06:18:26 11° WNW 06:23:08 58° N 06:28:00 10° E
Cosmos 332 Rocket 3.8 06:19:18 10° SSW 06:24:09 67° WNW 06:29:01 10° N
Cosmos 1703 Rocket 3.9 06:21:15 10° NNW 06:25:23 42° W 06:29:30 10° SSW
Okean O Rocket 2.1 06:25:21 10° N 06:29:26 38° WNW 06:33:32 10° SW
Okean 1 3.2 06:26:19 10° N 06:30:16 72° W 06:34:14 10° S
deb Centaur AC-2 4.5 06:31:17 10° W 06:35:26 41° NNW 06:39:33 10° NE
NOSS 3-2 (A) 3.4 06:31:24 10° SW 06:36:41 50° WNW 06:42:17 10° NNE
Cosmos 1331 Rocket 4.4 06:31:53 10° SW 06:36:42 41° WNW 06:41:32 10° N
GEOS 3 Rocket 4.3 06:32:14 10° SE 06:37:10 55° ENE 06:42:08 10° NNW
